Starlink 11488

operational
NORAD ID: 62222 Int'l Des: 2024-231 Owner: SPXS Country: US Constellation: starlink
LEOCIRCULAR

Über Starlink 11488

Beschreibung wird geladen...

Live-Position

3D-Globus wird geladen...

Nächste Überflüge

Höhenverlauf

Altitude vs Time

uPlot chart will show altitude changes over time

Zweizeiliger Elementsatz

1 62222U 24231E 25306.50280828 .00231239 00000-0 18569-2 0 9996
2 62222 53.1570 8.3776 0001393 102.1569 257.9605 15.69761394 53438
Epoch: 2. Nov. 2025 • Age: 31 hours

Aktueller Status

Höhe 357.5 km
Geschwindigkeit 7.70 km/s
Subsatellitenpunkt 13.93°N, 161.66°W
Startdatum 5. Dez. 2024
Alter 0.9 years
Typ internet

Technische Details

Klassifizierung Payload
Masse 960.00 kg
Trockenmasse 910.00 kg
Gesamtmasse 960.00 kg
Länge 0.30 m
Durchmesser 4.10 m
Spannweite 29.00 m
Form Box + pan
Hersteller SPXS
Bus-Typ Starlink V2MD
Phasenstatus In Orbit
Besitzer/Staat SPXS/US

Große Konstellationen

Loading constellations...